{"data":{"norad_id":68760,"intl_designator":"2026-084A","name":"DAQI-2","alt_names":[],"object_type":"PAYLOAD","status":"ACTIVE","operator":null,"country":"PRC","launch_date":"2026-04-17","launch_site_code":"JSC","launch_vehicle":null,"mission":null,"orbit_class":"UNKNOWN","rcs_meters":null,"size_class":null,"mass_kg":null,"dimensions":null,"purposes":[],"wikipedia_slug":null,"has_3d_model":false,"image_url":null,"decayed_at":null,"tle_current":{"epoch":"2026-05-19T19:40:20.248320Z","epoch_age_seconds":533217,"freshness":"STALE","line1":"1 68760U 26084A   26139.81967880  .00000010  00000+0  12342-4 0  9991","line2":"2 68760  98.2868 214.1067 0002254 150.4995 209.6331 14.57608955  4768","mean_motion":14.57608955,"eccentricity":0.0002254,"inclination_deg":98.2868,"raan_deg":214.1067,"arg_perigee_deg":150.4995,"mean_anomaly_deg":209.6331,"bstar":1.2342e-5,"rev_number":476,"period_min":98.791928730981,"perigee_km":699.3093914639,"apogee_km":702.50062360089,"semimajor_km":7079.0420075324,"source":"CELESTRAK","updated_at":"2026-05-25T13:38:08.060484Z"}}}